Regional Weather Roundup
Issued by NWS State College, PA

Home | Current Version | Previous Version | Graphics & Text | Print | Product List | Glossary On
Versions: 1 2 3 4 5 6 7 8 9 10 11 12 13 14 15 16 17 18 19 20 21 22 23 24 25 26 27 28 29 30 31 32 33 34 35 36 37 38 39 40 41 42 43 44 45 46 47 48 49 50
000
ASUS41 KCTP 030603
RWRCTP

REGIONAL WEATHER ROUNDUP
NATIONAL WEATHER SERVICE STATE COLLEGE PA
200 AM EDT TUE MAY 03 2016

Note: "fair" indicates few or no clouds below 12,000 feet with no
significant weather and/or obstructions to visibility.

* = STATION THAT DOES NOT REPORT PRECIPITATION /E.G. RAIN...SNOW...ETC/
    THUNDER OR FOG.

PAZ002>004-007>009-013>016-020>023-029>032-030700-
WESTERN PENNSYLVANIA

CITY           SKY/WX    TMP DP  RH WIND       PRES   REMARKS
ERIE           MOCLDY    42  40  92 CALM      29.94F FOG
MEADVILLE      CLOUDY    39  39 100 CALM      29.92R FOG
FRANKLIN*      CLOUDY    46  41  81 NE3       29.93S
NEW CASTLE     CLOUDY    46  43  89 NW5       29.93S
BEAVER COUNTY  NOT AVBL
BUTLER*        CLOUDY    48  45  87 NW3       29.93S
PITTSBURGH INT CLOUDY    50  44  80 NW7       29.90F
PITTSBURGH     CLOUDY    51  46  83 NW5       29.89S
INDIANA*       CLOUDY    55  52  88 CALM      29.90F
LATROBE        CLOUDY    55  55 100 CALM      29.89S
WASHINGTON CO* CLOUDY    52  46  82 NW6       29.90F
$$

PAZ004>006-010>012-017>019-024>028-033>037-041-042-045-046-049>053-030700-
CENTRAL PENNSYLVANIA

CITY           SKY/WX    TMP DP  RH WIND       PRES   REMARKS
BRADFORD       CLOUDY    44  43  96 NE5       29.90S FOG
DUBOIS         CLOUDY    49  46  90 N5        29.87F
CLEARFIELD     CLOUDY    54  48  80 E9        29.87F
JOHNSTOWN      LGT RAIN  53  47  79 SW6       29.87S
ALTOONA        CLOUDY    56  54  93 CALM      29.87F
STATE COLLEGE  CLOUDY    51  50  98 NE7       29.88F
WILLIAMSPORT   LGT RAIN  50  46  86 N3        29.90F
SELINSGROVE    LGT RAIN  52  49  89 NE5       29.89F
FT INDIANTOWN  NOT AVBL
CAPITAL CITY   LGT RAIN  60  56  86 E3        29.84F FOG
HARRISBURG     LGT RAIN  59  57  93 E5        29.83F FOG
YORK           LGT RAIN  60  58  92 SE10      29.83F
$$

PAZ038>040-043-044-047-048-054-055-060>062-067>071-030700-
EASTERN PENNSYLVANIA

CITY           SKY/WX    TMP DP  RH WIND       PRES   REMARKS
SCRANTON       RAIN      49  47  93 N3        29.91F FOG
MOUNT POCONO   LGT RAIN  47  44  90 NE8       29.88F
ALLENTOWN      RAIN      55  52  89 NE6       29.87F
QUAKERTOWN*    CLOUDY    55  55 100 CALM      29.87F
READING        LGT RAIN  57  55  93 CALM      29.85F FOG
LANCASTER      RAIN      57  56  96 SE5       29.85F FOG
COATESVILLE    CLOUDY    57  57 100 E10       29.87F FOG
POTTSTOWN      LGT RAIN  56  56 100 NE5       29.87F FOG
BLUE BELL      CLOUDY    54  54 100 E6        29.84F
DOYLESTOWN     LGT RAIN  54  54 100 VRB3      29.85F FOG
WILLOW GROVE   NOT AVBL
NORTH PHILA    CLOUDY    58  56  93 E7        29.87F FOG
PHILADELPHIA   CLOUDY    59  55  87 E9        29.85F
$$




USA.gov is the U.S. government's official web portal to all federal, state and local government web resources and services.